Time,TemperatureF,DewpointF,PressureIn,WindDirection,WindDirectionDegrees,WindSpeedMPH,WindSpeedGustMPH,Humidity,HourlyPrecipIn,Conditions,Clouds,dailyrainin,SoftwareType,DateUTC
2013-01-09 00:00:00,44.8,44.6,29.56,North,0,0.0,0.0,98,0.00,,,0.00,WeatherTracker,2013-01-09 08:00:00,
2013-01-09 00:05:00,45.0,44.6,29.56,North,0,0.0,1.0,98,0.00,,,0.00,WeatherTracker,2013-01-09 08:05:00,
2013-01-09 00:10:00,44.8,44.6,29.56,North,0,0.0,0.0,98,0.00,,,0.00,WeatherTracker,2013-01-09 08:10:00,
2013-01-09 00:20:00,44.8,44.6,29.53,North,0,0.0,0.0,98,0.00,,,0.00,WeatherTracker,2013-01-09 08:20:00,
2013-01-09 00:30:00,44.6,44.6,29.53,ENE,67,0.0,0.0,98,0.00,,,0.00,WeatherTracker,2013-01-09 08:30:00,
2013-01-09 00:40:00,44.4,44.6,29.53,North,0,2.0,2.0,98,0.00,,,0.00,WeatherTracker,2013-01-09 08:40:00,
2013-01-09 00:45:00,44.6,44.6,29.56,WNW,292,1.0,4.0,98,0.00,,,0.00,WeatherTracker,2013-01-09 08:45:00,
2013-01-09 00:55:00,44.6,44.6,29.56,East,90,2.0,2.0,98,0.00,,,0.00,WeatherTracker,2013-01-09 08:55:00,
2013-01-09 01:05:00,44.2,44.6,29.56,East,90,1.0,0.0,98,0.00,,,0.00,WeatherTracker,2013-01-09 09:05:00,
2013-01-09 01:15:00,44.2,44.6,29.56,ENE,67,0.0,0.0,98,0.00,,,0.00,WeatherTracker,2013-01-09 09:15:00,
2013-01-09 01:20:00,44.1,44.6,29.56,ENE,67,1.0,0.0,98,0.00,,,0.00,WeatherTracker,2013-01-09 09:20:00,
2013-01-09 01:30:00,43.5,42.8,29.56,ENE,67,0.0,0.0,98,0.00,,,0.00,WeatherTracker,2013-01-09 09:30:00,
2013-01-09 01:40:00,43.5,42.8,29.56,ENE,67,0.0,0.0,98,0.00,,,0.00,WeatherTracker,2013-01-09 09:40:00,
2013-01-09 01:50:00,43.3,42.8,29.56,ENE,67,0.0,0.0,98,0.00,,,0.00,WeatherTracker,2013-01-09 09:50:00,
2013-01-09 01:55:00,43.2,42.8,29.56,ENE,67,0.0,0.0,98,0.00,,,0.00,WeatherTracker,2013-01-09 09:55:00,
2013-01-09 02:05:00,43.0,42.8,29.56,ENE,67,0.0,0.0,98,0.00,,,0.00,WeatherTracker,2013-01-09 10:05:00,
2013-01-09 02:10:00,43.0,42.8,29.56,ENE,67,1.0,0.0,98,0.00,,,0.00,WeatherTracker,2013-01-09 10:10:00,
2013-01-09 02:15:00,42.8,42.8,29.56,ENE,67,0.0,0.0,98,0.00,,,0.00,WeatherTracker,2013-01-09 10:15:00,
2013-01-09 02:25:00,43.0,42.8,29.56,NNE,22,3.0,3.0,98,0.00,,,0.00,WeatherTracker,2013-01-09 10:25:00,
2013-01-09 02:30:00,43.2,42.8,29.56,NNE,22,1.0,1.0,98,0.00,,,0.00,WeatherTracker,2013-01-09 10:30:00,
2013-01-09 02:40:00,43.3,42.8,29.56,North,0,1.0,1.0,98,0.00,,,0.00,WeatherTracker,2013-01-09 10:40:00,
2013-01-09 02:50:00,43.3,42.8,29.56,North,0,3.0,6.0,96,0.00,,,0.00,WeatherTracker,2013-01-09 10:50:00,
2013-01-09 02:55:00,43.5,42.8,29.56,NE,45,2.0,2.0,94,0.00,,,0.00,WeatherTracker,2013-01-09 10:55:00,
2013-01-09 03:00:00,43.5,41.0,29.59,NW,315,4.0,4.0,90,0.00,,,0.00,WeatherTracker,2013-01-09 11:00:00,
2013-01-09 03:10:00,43.9,41.0,29.59,NNE,22,2.0,2.0,87,0.00,,,0.00,WeatherTracker,2013-01-09 11:10:00,
2013-01-09 03:15:00,43.9,41.0,29.56,North,0,0.0,0.0,88,0.00,,,0.00,WeatherTracker,2013-01-09 11:15:00,
2013-01-09 03:25:00,42.8,41.0,29.56,East,90,1.0,1.0,91,0.00,,,0.00,WeatherTracker,2013-01-09 11:25:00,
2013-01-09 03:30:00,42.4,41.0,29.56,East,90,0.0,0.0,92,0.00,,,0.00,WeatherTracker,2013-01-09 11:30:00,
2013-01-09 03:35:00,42.1,41.0,29.56,East,90,0.0,0.0,92,0.00,,,0.00,WeatherTracker,2013-01-09 11:35:00,
2013-01-09 03:40:00,42.1,41.0,29.56,East,90,0.0,0.0,93,0.00,,,0.00,WeatherTracker,2013-01-09 11:40:00,
2013-01-09 03:50:00,41.5,41.0,29.56,SE,135,1.0,1.0,94,0.00,,,0.00,WeatherTracker,2013-01-09 11:50:00,
2013-01-09 03:55:00,41.2,39.2,29.56,SE,135,1.0,2.0,94,0.00,,,0.00,WeatherTracker,2013-01-09 11:55:00,
2013-01-09 04:00:00,41.0,39.2,29.56,SE,135,1.0,1.0,94,0.00,,,0.00,WeatherTracker,2013-01-09 12:00:00,
2013-01-09 04:10:00,40.8,39.2,29.56,ESE,112,0.0,0.0,95,0.00,,,0.00,WeatherTracker,2013-01-09 12:10:00,
2013-01-09 04:15:00,40.6,39.2,29.56,ESE,112,0.0,0.0,95,0.00,,,0.00,WeatherTracker,2013-01-09 12:15:00,
2013-01-09 04:25:00,40.5,39.2,29.56,SE,135,1.0,1.0,96,0.00,,,0.00,WeatherTracker,2013-01-09 12:25:00,
2013-01-09 04:35:00,40.3,39.2,29.56,East,90,0.0,0.0,96,0.00,,,0.00,WeatherTracker,2013-01-09 12:35:00,
2013-01-09 04:45:00,40.3,39.2,29.56,ESE,112,0.0,0.0,96,0.00,,,0.00,WeatherTracker,2013-01-09 12:45:00,
2013-01-09 04:50:00,40.1,39.2,29.56,ESE,112,0.0,0.0,96,0.00,,,0.00,WeatherTracker,2013-01-09 12:50:00,
2013-01-09 04:55:00,40.1,39.2,29.56,ESE,112,0.0,0.0,97,0.00,,,0.00,WeatherTracker,2013-01-09 12:55:00,
2013-01-09 05:00:00,40.3,39.2,29.56,SE,135,2.0,2.0,97,0.00,,,0.00,WeatherTracker,2013-01-09 13:00:00,
2013-01-09 05:05:00,40.3,39.2,29.56,ESE,112,0.0,0.0,97,0.00,,,0.00,WeatherTracker,2013-01-09 13:05:00,
2013-01-09 05:10:00,40.3,39.2,29.56,West,270,1.0,2.0,97,0.00,,,0.00,WeatherTracker,2013-01-09 13:10:00,
2013-01-09 05:15:00,40.6,39.2,29.56,East,90,1.0,0.0,97,0.00,,,0.00,WeatherTracker,2013-01-09 13:15:00,
2013-01-09 05:20:00,40.5,39.2,29.56,ESE,112,1.0,1.0,97,0.00,,,0.00,WeatherTracker,2013-01-09 13:20:00,
2013-01-09 05:25:00,40.3,39.2,29.56,ESE,112,0.0,0.0,97,0.00,,,0.00,WeatherTracker,2013-01-09 13:25:00,
2013-01-09 05:35:00,40.1,39.2,29.56,ESE,112,0.0,0.0,97,0.00,,,0.00,WeatherTracker,2013-01-09 13:35:00,
2013-01-09 05:40:00,39.9,39.2,29.56,ESE,112,0.0,0.0,97,0.00,,,0.00,WeatherTracker,2013-01-09 13:40:00,
2013-01-09 05:45:00,39.9,39.2,29.56,SE,135,1.0,0.0,97,0.00,,,0.00,WeatherTracker,2013-01-09 13:45:00,
2013-01-09 05:55:00,39.7,39.2,29.56,ESE,112,0.0,0.0,97,0.00,,,0.00,WeatherTracker,2013-01-09 13:55:00,
2013-01-09 06:00:00,39.7,39.2,29.56,East,90,0.0,1.0,97,0.00,,,0.00,WeatherTracker,2013-01-09 14:00:00,
2013-01-09 06:10:00,39.9,39.2,29.56,ESE,112,2.0,0.0,98,0.00,,,0.00,WeatherTracker,2013-01-09 14:10:00,
2013-01-09 06:20:00,39.7,39.2,29.53,SE,135,1.0,2.0,97,0.00,,,0.00,WeatherTracker,2013-01-09 14:20:00,
2013-01-09 06:30:00,39.7,39.2,29.56,ESE,112,0.0,0.0,98,0.00,,,0.00,WeatherTracker,2013-01-09 14:30:00,
2013-01-09 06:35:00,39.7,39.2,29.56,ESE,112,0.0,0.0,98,0.00,,,0.00,WeatherTracker,2013-01-09 14:35:00,
2013-01-09 06:45:00,39.9,39.2,29.56,North,0,0.0,0.0,98,0.00,,,0.00,WeatherTracker,2013-01-09 14:45:00,
2013-01-09 06:50:00,39.7,39.2,29.56,North,0,0.0,0.0,98,0.00,,,0.00,WeatherTracker,2013-01-09 14:50:00,
2013-01-09 06:55:00,39.7,39.2,29.56,North,0,1.0,2.0,98,0.00,,,0.00,WeatherTracker,2013-01-09 14:55:00,
2013-01-09 07:05:00,39.7,39.2,29.56,ESE,112,0.0,0.0,98,0.00,,,0.00,WeatherTracker,2013-01-09 15:05:00,
2013-01-09 07:10:00,39.7,39.2,29.56,ESE,112,0.0,0.0,98,0.00,,,0.00,WeatherTracker,2013-01-09 15:10:00,
2013-01-09 07:20:00,39.7,39.2,29.56,SE,135,0.0,0.0,98,0.00,,,0.00,WeatherTracker,2013-01-09 15:20:00,
2013-01-09 07:25:00,39.6,39.2,29.56,SE,135,0.0,0.0,98,0.00,,,0.00,WeatherTracker,2013-01-09 15:25:00,
2013-01-09 07:30:00,39.6,39.2,29.56,SE,135,0.0,0.0,98,0.00,,,0.00,WeatherTracker,2013-01-09 15:30:00,
2013-01-09 07:35:00,39.7,39.2,29.56,SE,135,0.0,0.0,98,0.00,,,0.00,WeatherTracker,2013-01-09 15:35:00,
2013-01-09 07:40:00,39.6,39.2,29.56,SE,135,0.0,0.0,98,0.00,,,0.00,WeatherTracker,2013-01-09 15:40:00,
2013-01-09 07:45:00,39.6,39.2,29.56,SE,135,0.0,0.0,98,0.00,,,0.00,WeatherTracker,2013-01-09 15:45:00,
2013-01-09 07:55:00,39.7,39.2,29.56,SE,135,0.0,0.0,98,0.00,,,0.00,WeatherTracker,2013-01-09 15:55:00,
2013-01-09 08:05:00,39.9,39.2,29.56,SE,135,0.0,0.0,98,0.00,,,0.00,WeatherTracker,2013-01-09 16:05:00,
2013-01-09 08:15:00,39.6,39.2,29.56,SE,135,0.0,0.0,98,0.00,,,0.00,WeatherTracker,2013-01-09 16:15:00,
2013-01-09 08:20:00,39.4,39.2,29.56,East,90,0.0,2.0,98,0.00,,,0.00,WeatherTracker,2013-01-09 16:20:00,
2013-01-09 08:30:00,39.4,39.2,29.56,ENE,67,0.0,0.0,98,0.00,,,0.00,WeatherTracker,2013-01-09 16:30:00,
2013-01-09 08:40:00,39.4,39.2,29.56,ENE,67,0.0,0.0,98,0.00,,,0.00,WeatherTracker,2013-01-09 16:40:00,
2013-01-09 08:50:00,39.2,39.2,29.56,SE,135,0.0,0.0,98,0.00,,,0.00,WeatherTracker,2013-01-09 16:50:00,
2013-01-09 08:55:00,39.0,39.2,29.56,SE,135,0.0,0.0,98,0.00,,,0.00,WeatherTracker,2013-01-09 16:55:00,
2013-01-09 09:05:00,39.0,39.2,29.59,SE,135,0.0,0.0,98,0.00,,,0.00,WeatherTracker,2013-01-09 17:05:00,
2013-01-09 09:15:00,39.2,39.2,29.62,ENE,67,1.0,0.0,98,0.00,,,0.00,WeatherTracker,2013-01-09 17:15:00,
2013-01-09 09:20:00,39.6,39.2,29.62,NE,45,3.0,0.0,98,0.00,,,0.00,WeatherTracker,2013-01-09 17:20:00,
2013-01-09 09:25:00,39.9,39.2,29.62,NE,45,0.0,0.0,98,0.00,,,0.00,WeatherTracker,2013-01-09 17:25:00,
2013-01-09 09:35:00,40.3,41.0,29.65,NE,45,0.0,1.0,98,0.00,,,0.00,WeatherTracker,2013-01-09 17:35:00,
2013-01-09 09:40:00,40.6,41.0,29.65,NE,45,1.0,2.0,98,0.00,,,0.00,WeatherTracker,2013-01-09 17:40:00,
2013-01-09 09:50:00,41.2,41.0,29.65,NE,45,0.0,0.0,98,0.00,,,0.00,WeatherTracker,2013-01-09 17:50:00,
2013-01-09 09:55:00,41.7,42.8,29.65,NE,45,1.0,1.0,98,0.00,,,0.00,WeatherTracker,2013-01-09 17:55:00,
2013-01-09 10:00:00,42.3,42.8,29.62,East,90,2.0,0.0,98,0.00,,,0.00,WeatherTracker,2013-01-09 18:00:00,
2013-01-09 10:05:00,42.8,42.8,29.62,ENE,67,0.0,0.0,98,0.00,,,0.00,WeatherTracker,2013-01-09 18:05:00,
2013-01-09 10:15:00,43.5,42.8,29.62,ENE,67,1.0,1.0,98,0.00,,,0.00,WeatherTracker,2013-01-09 18:15:00,
2013-01-09 10:25:00,44.8,44.6,29.62,North,0,2.0,0.0,98,0.00,,,0.00,WeatherTracker,2013-01-09 18:25:00,
2013-01-09 10:30:00,46.0,46.4,29.65,North,0,0.0,0.0,98,0.00,,,0.00,WeatherTracker,2013-01-09 18:30:00,
2013-01-09 10:35:00,46.8,46.4,29.65,North,0,1.0,2.0,98,0.00,,,0.00,WeatherTracker,2013-01-09 18:35:00,
2013-01-09 10:45:00,47.1,46.4,29.62,North,0,0.0,0.0,96,0.00,,,0.00,WeatherTracker,2013-01-09 18:45:00,
2013-01-09 10:50:00,47.1,46.4,29.62,North,0,0.0,2.0,95,0.00,,,0.00,WeatherTracker,2013-01-09 18:50:00,
2013-01-09 10:55:00,46.9,46.4,29.62,North,0,0.0,0.0,94,0.00,,,0.00,WeatherTracker,2013-01-09 18:55:00,
2013-01-09 11:00:00,47.1,46.4,29.62,North,0,0.0,0.0,94,0.00,,,0.00,WeatherTracker,2013-01-09 19:00:00,
2013-01-09 11:05:00,47.8,46.4,29.62,North,0,1.0,1.0,93,0.00,,,0.00,WeatherTracker,2013-01-09 19:05:00,
2013-01-09 11:10:00,47.7,44.6,29.62,North,0,0.0,0.0,89,0.00,,,0.00,WeatherTracker,2013-01-09 19:10:00,
2013-01-09 11:15:00,47.5,44.6,29.59,North,0,1.0,0.0,87,0.00,,,0.00,WeatherTracker,2013-01-09 19:15:00,
2013-01-09 11:20:00,47.8,44.6,29.59,North,0,1.0,2.0,88,0.00,,,0.00,WeatherTracker,2013-01-09 19:20:00,
2013-01-09 11:25:00,48.0,44.6,29.59,North,0,1.0,1.0,87,0.00,,,0.00,WeatherTracker,2013-01-09 19:25:00,
2013-01-09 11:30:00,48.0,44.6,29.62,North,0,2.0,2.0,86,0.00,,,0.00,WeatherTracker,2013-01-09 19:30:00,
2013-01-09 11:35:00,47.5,42.8,29.62,North,0,1.0,0.0,84,0.00,,,0.00,WeatherTracker,2013-01-09 19:35:00,
2013-01-09 11:45:00,46.8,42.8,29.62,East,90,0.0,0.0,82,0.00,,,0.00,WeatherTracker,2013-01-09 19:45:00,
2013-01-09 11:50:00,46.9,42.8,29.62,ENE,67,0.0,1.0,83,0.00,,,0.00,WeatherTracker,2013-01-09 19:50:00,
2013-01-09 12:00:00,48.6,42.8,29.62,North,0,0.0,0.0,80,0.00,,,0.00,WeatherTracker,2013-01-09 20:00:00,
2013-01-09 12:10:00,50.5,42.8,29.62,North,0,0.0,0.0,75,0.00,,,0.00,WeatherTracker,2013-01-09 20:10:00,
2013-01-09 12:15:00,50.9,44.6,29.62,North,0,2.0,2.0,75,0.00,,,0.00,WeatherTracker,2013-01-09 20:15:00,
2013-01-09 12:25:00,51.1,41.0,29.62,North,0,2.0,2.0,68,0.00,,,0.00,WeatherTracker,2013-01-09 20:25:00,
2013-01-09 12:35:00,49.8,41.0,29.62,North,0,2.0,2.0,69,0.00,,,0.00,WeatherTracker,2013-01-09 20:35:00,
2013-01-09 12:45:00,49.1,39.2,29.62,North,0,3.0,3.0,69,0.00,,,0.00,WeatherTracker,2013-01-09 20:45:00,
2013-01-09 12:50:00,48.9,41.0,29.62,NNW,337,1.0,2.0,71,0.00,,,0.00,WeatherTracker,2013-01-09 20:50:00,
2013-01-09 13:00:00,47.8,39.2,29.62,NNE,22,3.0,3.0,70,0.00,,,0.00,WeatherTracker,2013-01-09 21:00:00,
2013-01-09 13:10:00,47.3,39.2,29.62,SSW,202,0.0,0.0,73,0.00,,,0.00,WeatherTracker,2013-01-09 21:10:00,
2013-01-09 13:20:00,46.9,39.2,29.62,North,0,1.0,2.0,74,0.00,,,0.00,WeatherTracker,2013-01-09 21:20:00,
2013-01-09 13:25:00,47.1,41.0,29.62,NNE,22,2.0,3.0,75,0.00,,,0.00,WeatherTracker,2013-01-09 21:25:00,
2013-01-09 13:35:00,47.7,39.2,29.65,North,0,2.0,3.0,73,0.00,,,0.00,WeatherTracker,2013-01-09 21:35:00,
2013-01-09 13:45:00,47.5,41.0,29.62,East,90,2.0,2.0,75,0.00,,,0.00,WeatherTracker,2013-01-09 21:45:00,
2013-01-09 13:55:00,47.1,41.0,29.62,NW,315,2.0,2.0,75,0.00,,,0.00,WeatherTracker,2013-01-09 21:55:00,
2013-01-09 14:00:00,46.9,41.0,29.65,NNE,22,2.0,3.0,75,0.00,,,0.00,WeatherTracker,2013-01-09 22:00:00,
2013-01-09 14:05:00,46.8,39.2,29.65,NW,315,3.0,3.0,74,0.00,,,0.00,WeatherTracker,2013-01-09 22:05:00,
2013-01-09 14:10:00,46.6,39.2,29.65,North,0,2.0,2.0,74,0.00,,,0.00,WeatherTracker,2013-01-09 22:10:00,
2013-01-09 14:20:00,46.4,39.2,29.65,NNW,337,1.0,1.0,76,0.00,,,0.00,WeatherTracker,2013-01-09 22:20:00,
2013-01-09 14:30:00,46.0,37.4,29.65,NW,315,2.0,3.0,73,0.00,,,0.00,WeatherTracker,2013-01-09 22:30:00,
2013-01-09 14:35:00,45.9,37.4,29.65,NW,315,3.0,3.0,72,0.00,,,0.00,WeatherTracker,2013-01-09 22:35:00,
2013-01-09 14:40:00,45.9,37.4,29.65,North,0,2.0,4.0,73,0.00,,,0.00,WeatherTracker,2013-01-09 22:40:00,
2013-01-09 14:45:00,45.7,37.4,29.65,North,0,2.0,2.0,73,0.00,,,0.00,WeatherTracker,2013-01-09 22:45:00,
2013-01-09 14:55:00,45.7,39.2,29.65,NNW,337,1.0,1.0,75,0.00,,,0.00,WeatherTracker,2013-01-09 22:55:00,
2013-01-09 15:05:00,45.3,37.4,29.65,North,0,1.0,1.0,75,0.00,,,0.00,WeatherTracker,2013-01-09 23:05:00,
2013-01-09 15:15:00,45.1,37.4,29.68,NNW,337,2.0,2.0,74,0.00,,,0.00,WeatherTracker,2013-01-09 23:15:00,
2013-01-09 15:25:00,45.0,37.4,29.68,NW,315,2.0,3.0,75,0.00,,,0.00,WeatherTracker,2013-01-09 23:25:00,
2013-01-09 15:30:00,45.0,37.4,29.65,North,0,0.0,2.0,76,0.00,,,0.00,WeatherTracker,2013-01-09 23:30:00,
2013-01-09 15:40:00,45.0,37.4,29.65,North,0,2.0,2.0,74,0.00,,,0.00,WeatherTracker,2013-01-09 23:40:00,
2013-01-09 15:50:00,44.8,37.4,29.68,NNE,22,0.0,0.0,76,0.00,,,0.00,WeatherTracker,2013-01-09 23:50:00,
2013-01-09 15:55:00,44.6,37.4,29.68,NNE,22,2.0,2.0,76,0.00,,,0.00,WeatherTracker,2013-01-09 23:55:00,
2013-01-09 16:05:00,44.2,37.4,29.71,NNE,22,0.0,0.0,76,0.00,,,0.00,WeatherTracker,2013-01-10 00:05:00,
2013-01-09 16:10:00,43.9,37.4,29.71,North,0,0.0,0.0,76,0.00,,,0.00,WeatherTracker,2013-01-10 00:10:00,
2013-01-09 16:20:00,43.2,37.4,29.68,NW,315,1.0,1.0,77,0.00,,,0.00,WeatherTracker,2013-01-10 00:20:00,
2013-01-09 16:25:00,42.8,37.4,29.68,North,0,1.0,1.0,77,0.00,,,0.00,WeatherTracker,2013-01-10 00:25:00,
2013-01-09 16:30:00,42.4,37.4,29.68,North,0,0.0,0.0,79,0.00,,,0.00,WeatherTracker,2013-01-10 00:30:00,
2013-01-09 16:40:00,42.1,37.4,29.68,North,0,1.0,0.0,79,0.00,,,0.00,WeatherTracker,2013-01-10 00:40:00,
2013-01-09 16:45:00,42.1,37.4,29.71,North,0,2.0,2.0,79,0.00,,,0.00,WeatherTracker,2013-01-10 00:45:00,
2013-01-09 16:50:00,41.9,37.4,29.71,North,0,1.0,1.0,79,0.00,,,0.00,WeatherTracker,2013-01-10 00:50:00,
2013-01-09 16:55:00,41.7,35.6,29.71,WSW,247,2.0,3.0,79,0.00,,,0.00,WeatherTracker,2013-01-10 00:55:00,
2013-01-09 17:00:00,41.7,35.6,29.71,WNW,292,1.0,2.0,79,0.00,,,0.00,WeatherTracker,2013-01-10 01:00:00,
2013-01-09 17:05:00,41.5,35.6,29.71,NNE,22,0.0,0.0,78,0.00,,,0.00,WeatherTracker,2013-01-10 01:05:00,
2013-01-09 17:15:00,40.5,35.6,29.68,NNE,22,1.0,0.0,81,0.00,,,0.00,WeatherTracker,2013-01-10 01:15:00,
2013-01-09 17:25:00,39.7,35.6,29.68,NNE,22,0.0,0.0,82,0.00,,,0.00,WeatherTracker,2013-01-10 01:25:00,
2013-01-09 17:35:00,38.8,33.8,29.71,NNE,22,0.0,1.0,84,0.00,,,0.00,WeatherTracker,2013-01-10 01:35:00,
2013-01-09 17:40:00,39.0,35.6,29.71,NNE,22,0.0,0.0,84,0.00,,,0.00,WeatherTracker,2013-01-10 01:40:00,
2013-01-09 17:50:00,39.0,35.6,29.74,NNE,22,0.0,0.0,84,0.00,,,0.00,WeatherTracker,2013-01-10 01:50:00,
2013-01-09 18:00:00,39.2,35.6,29.71,NNE,22,1.0,0.0,84,0.00,,,0.00,WeatherTracker,2013-01-10 02:00:00,
2013-01-09 18:05:00,39.2,35.6,29.71,NNE,22,0.0,0.0,84,0.00,,,0.00,WeatherTracker,2013-01-10 02:05:00,
2013-01-09 18:10:00,39.4,35.6,29.71,NNE,22,0.0,0.0,84,0.00,,,0.00,WeatherTracker,2013-01-10 02:10:00,
2013-01-09 18:15:00,39.2,35.6,29.74,NNE,22,0.0,1.0,85,0.00,,,0.00,WeatherTracker,2013-01-10 02:15:00,
2013-01-09 18:25:00,39.6,35.6,29.74,NNE,22,0.0,0.0,85,0.00,,,0.00,WeatherTracker,2013-01-10 02:25:00,
2013-01-09 18:30:00,39.7,35.6,29.74,NNE,22,1.0,0.0,85,0.00,,,0.00,WeatherTracker,2013-01-10 02:30:00,
2013-01-09 18:35:00,39.6,35.6,29.74,NNE,22,1.0,1.0,85,0.00,,,0.00,WeatherTracker,2013-01-10 02:35:00,
2013-01-09 18:40:00,39.4,35.6,29.74,NNE,22,0.0,0.0,85,0.00,,,0.00,WeatherTracker,2013-01-10 02:40:00,
2013-01-09 18:45:00,39.2,35.6,29.77,NNE,22,0.0,0.0,86,0.00,,,0.00,WeatherTracker,2013-01-10 02:45:00,
2013-01-09 18:50:00,39.2,35.6,29.77,NNE,22,0.0,0.0,86,0.00,,,0.00,WeatherTracker,2013-01-10 02:50:00,
2013-01-09 19:00:00,38.8,35.6,29.74,NNE,22,0.0,0.0,87,0.00,,,0.00,WeatherTracker,2013-01-10 03:00:00,
2013-01-09 19:10:00,38.7,35.6,29.74,NNE,22,0.0,0.0,87,0.00,,,0.00,WeatherTracker,2013-01-10 03:10:00,
2013-01-09 19:15:00,38.7,35.6,29.74,NNE,22,0.0,0.0,88,0.00,,,0.00,WeatherTracker,2013-01-10 03:15:00,
2013-01-09 19:20:00,38.7,35.6,29.74,NNE,22,0.0,0.0,88,0.00,,,0.00,WeatherTracker,2013-01-10 03:20:00,
2013-01-09 19:25:00,38.7,35.6,29.74,NNE,22,0.0,0.0,88,0.00,,,0.00,WeatherTracker,2013-01-10 03:25:00,
2013-01-09 19:35:00,38.3,35.6,29.77,NNE,22,0.0,0.0,88,0.00,,,0.00,WeatherTracker,2013-01-10 03:35:00,
2013-01-09 19:45:00,37.9,35.6,29.77,NNE,22,0.0,0.0,89,0.00,,,0.00,WeatherTracker,2013-01-10 03:45:00,
2013-01-09 19:50:00,37.8,35.6,29.77,NNE,22,0.0,0.0,89,0.00,,,0.00,WeatherTracker,2013-01-10 03:50:00,
2013-01-09 19:55:00,37.6,35.6,29.77,NNE,22,0.0,0.0,89,0.00,,,0.00,WeatherTracker,2013-01-10 03:55:00,
2013-01-09 20:05:00,37.0,35.6,29.77,NNE,22,1.0,1.0,89,0.00,,,0.00,WeatherTracker,2013-01-10 04:05:00,
2013-01-09 20:10:00,37.0,35.6,29.77,NNE,22,1.0,0.0,89,0.00,,,0.00,WeatherTracker,2013-01-10 04:10:00,
2013-01-09 20:15:00,37.0,35.6,29.77,NNE,22,0.0,2.0,89,0.00,,,0.00,WeatherTracker,2013-01-10 04:15:00,
2013-01-09 20:20:00,36.9,33.8,29.77,NNE,22,0.0,0.0,90,0.00,,,0.00,WeatherTracker,2013-01-10 04:20:00,
2013-01-09 20:25:00,36.9,33.8,29.77,NNE,22,0.0,1.0,90,0.00,,,0.00,WeatherTracker,2013-01-10 04:25:00,
2013-01-09 20:35:00,36.3,33.8,29.80,NNE,22,1.0,1.0,90,0.00,,,0.00,WeatherTracker,2013-01-10 04:35:00,
2013-01-09 20:45:00,36.3,33.8,29.80,NNE,22,0.0,0.0,90,0.00,,,0.00,WeatherTracker,2013-01-10 04:45:00,
2013-01-09 20:50:00,36.3,33.8,29.80,NNE,22,0.0,0.0,91,0.00,,,0.00,WeatherTracker,2013-01-10 04:50:00,
2013-01-09 20:55:00,36.3,33.8,29.80,NNE,22,0.0,0.0,91,0.00,,,0.00,WeatherTracker,2013-01-10 04:55:00,
2013-01-09 21:00:00,36.3,33.8,29.77,NNE,22,0.0,0.0,91,0.00,,,0.00,WeatherTracker,2013-01-10 05:00:00,
2013-01-09 21:05:00,36.3,33.8,29.77,NNE,22,0.0,0.0,91,0.00,,,0.00,WeatherTracker,2013-01-10 05:05:00,
2013-01-09 21:10:00,36.5,35.6,29.77,NNE,22,0.0,0.0,92,0.00,,,0.00,WeatherTracker,2013-01-10 05:10:00,
2013-01-09 21:15:00,36.5,35.6,29.80,NNE,22,0.0,0.0,92,0.00,,,0.00,WeatherTracker,2013-01-10 05:15:00,
2013-01-09 21:20:00,36.7,35.6,29.80,NNE,22,0.0,0.0,92,0.00,,,0.00,WeatherTracker,2013-01-10 05:20:00,
2013-01-09 21:30:00,36.7,35.6,29.80,NNE,22,1.0,2.0,93,0.00,,,0.00,WeatherTracker,2013-01-10 05:30:00,
2013-01-09 21:35:00,36.7,35.6,29.80,NNE,22,0.0,0.0,93,0.00,,,0.00,WeatherTracker,2013-01-10 05:35:00,
2013-01-09 21:45:00,36.7,35.6,29.80,NNE,22,0.0,0.0,93,0.00,,,0.00,WeatherTracker,2013-01-10 05:45:00,
2013-01-09 21:55:00,36.7,35.6,29.80,NNE,22,0.0,0.0,93,0.00,,,0.00,WeatherTracker,2013-01-10 05:55:00,
2013-01-09 22:05:00,36.9,35.6,29.83,NNE,22,1.0,1.0,94,0.00,,,0.00,WeatherTracker,2013-01-10 06:05:00,
2013-01-09 22:10:00,37.2,35.6,29.83,North,0,0.0,0.0,94,0.00,,,0.00,WeatherTracker,2013-01-10 06:10:00,
2013-01-09 22:20:00,37.9,37.4,29.83,South,180,1.0,2.0,94,0.00,,,0.00,WeatherTracker,2013-01-10 06:20:00,
2013-01-09 22:30:00,38.8,37.4,29.83,NNE,22,0.0,0.0,92,0.00,,,0.00,WeatherTracker,2013-01-10 06:30:00,
2013-01-09 22:40:00,39.0,37.4,29.83,NNE,22,0.0,0.0,90,0.00,,,0.00,WeatherTracker,2013-01-10 06:40:00,
2013-01-09 22:45:00,39.2,35.6,29.80,North,0,1.0,0.0,88,0.00,,,0.00,WeatherTracker,2013-01-10 06:45:00,
2013-01-09 22:50:00,39.4,35.6,29.80,SSE,157,0.0,1.0,88,0.00,,,0.00,WeatherTracker,2013-01-10 06:50:00,
2013-01-09 23:00:00,39.7,35.6,29.80,NW,315,2.0,3.0,86,0.00,,,0.00,WeatherTracker,2013-01-10 07:00:00,
2013-01-09 23:05:00,39.7,35.6,29.80,North,0,2.0,3.0,85,0.00,,,0.00,WeatherTracker,2013-01-10 07:05:00,
2013-01-09 23:15:00,39.7,35.6,29.80,NNE,22,1.0,2.0,86,0.00,,,0.00,WeatherTracker,2013-01-10 07:15:00,
2013-01-09 23:20:00,39.7,37.4,29.80,NNE,22,1.0,2.0,87,0.00,,,0.00,WeatherTracker,2013-01-10 07:20:00,
2013-01-09 23:25:00,39.7,37.4,29.80,NNE,22,2.0,2.0,87,0.00,,,0.00,WeatherTracker,2013-01-10 07:25:00,
2013-01-09 23:30:00,39.7,37.4,29.80,North,0,2.0,0.0,87,0.00,,,0.00,WeatherTracker,2013-01-10 07:30:00,
2013-01-09 23:40:00,39.7,37.4,29.80,North,0,1.0,2.0,88,0.00,,,0.00,WeatherTracker,2013-01-10 07:40:00,
2013-01-09 23:50:00,39.7,37.4,29.83,West,270,3.0,3.0,87,0.00,,,0.00,WeatherTracker,2013-01-10 07:50:00,
2013-01-09 23:55:00,39.7,35.6,29.83,South,180,1.0,2.0,86,0.00,,,0.00,WeatherTracker,2013-01-10 07:55:00,